Year,Month,Day,Hour,Minute,Value (Times are PST for temperature in C)
2005,06,21,00,00,17.90
2005,06,21,00,01,17.90
2005,06,21,00,02,17.80
2005,06,21,00,03,17.70
2005,06,21,00,04,17.70
2005,06,21,00,05,17.50
2005,06,21,00,06,17.30
2005,06,21,00,07,17.20
2005,06,21,00,08,17.10
2005,06,21,00,09,17.00
2005,06,21,00,10,17.00
2005,06,21,00,11,17.00
2005,06,21,00,12,17.00
2005,06,21,00,13,17.10
2005,06,21,00,14,17.10
2005,06,21,00,15,17.20
2005,06,21,00,16,17.30
2005,06,21,00,17,17.30
2005,06,21,00,18,17.30
2005,06,21,00,19,17.30
2005,06,21,00,20,17.30
2005,06,21,00,21,17.30
2005,06,21,00,22,17.40
2005,06,21,00,23,17.40
2005,06,21,00,24,17.40
2005,06,21,00,25,17.40
2005,06,21,00,26,17.40
2005,06,21,00,27,17.40
2005,06,21,00,28,17.40
2005,06,21,00,29,17.40
2005,06,21,00,30,17.40
2005,06,21,00,31,17.30
2005,06,21,00,32,17.30
2005,06,21,00,33,17.30
2005,06,21,00,34,17.30
2005,06,21,00,35,17.30
2005,06,21,00,36,17.30
2005,06,21,00,37,17.30
2005,06,21,00,38,17.30
2005,06,21,00,39,17.30
2005,06,21,00,40,17.30
2005,06,21,00,41,17.40
2005,06,21,00,42,17.40
2005,06,21,00,43,17.40
2005,06,21,00,44,17.40
2005,06,21,00,45,17.40
2005,06,21,00,46,17.40
2005,06,21,00,47,17.40
2005,06,21,00,48,17.40
2005,06,21,00,49,17.40
2005,06,21,00,50,17.40
2005,06,21,00,51,17.40
2005,06,21,00,52,17.40
2005,06,21,00,53,17.40
2005,06,21,00,54,17.40
2005,06,21,00,55,17.40
2005,06,21,00,56,17.40
2005,06,21,00,57,17.40
2005,06,21,00,58,17.40
2005,06,21,00,59,17.50
2005,06,21,01,00,17.40
2005,06,21,01,01,17.40
2005,06,21,01,02,17.50
2005,06,21,01,03,17.50
2005,06,21,01,04,17.50
2005,06,21,01,05,17.50
2005,06,21,01,06,17.50
2005,06,21,01,07,17.50
2005,06,21,01,08,17.50
2005,06,21,01,09,17.50
2005,06,21,01,10,17.40
2005,06,21,01,11,17.30
2005,06,21,01,12,17.30
2005,06,21,01,13,17.30
2005,06,21,01,14,17.20
2005,06,21,01,15,17.20
2005,06,21,01,16,17.20
2005,06,21,01,17,17.20
2005,06,21,01,18,17.20
2005,06,21,01,19,17.20
2005,06,21,01,20,17.20
2005,06,21,01,21,17.20
2005,06,21,01,22,17.20
2005,06,21,01,23,17.20
2005,06,21,01,24,17.10
2005,06,21,01,25,17.10
2005,06,21,01,26,17.00
2005,06,21,01,27,17.00
2005,06,21,01,28,17.00
2005,06,21,01,29,17.00
2005,06,21,01,30,17.00
2005,06,21,01,31,17.10
2005,06,21,01,32,17.10
2005,06,21,01,33,17.10
2005,06,21,01,34,17.00
2005,06,21,01,35,17.00
2005,06,21,01,36,17.00
2005,06,21,01,37,17.00
2005,06,21,01,38,17.00
2005,06,21,01,39,17.00
2005,06,21,01,40,17.00
2005,06,21,01,41,17.00
2005,06,21,01,42,17.00
2005,06,21,01,43,17.00
2005,06,21,01,44,16.90
2005,06,21,01,45,16.90
2005,06,21,01,46,16.90
2005,06,21,01,47,16.80
2005,06,21,01,48,16.80
2005,06,21,01,49,16.80
2005,06,21,01,50,16.80
2005,06,21,01,51,16.80
2005,06,21,01,52,16.80
2005,06,21,01,53,16.80
2005,06,21,01,54,16.80
2005,06,21,01,55,16.80
2005,06,21,01,56,16.80
2005,06,21,01,57,16.80
2005,06,21,01,58,16.80
2005,06,21,01,59,16.80
2005,06,21,02,00,16.80
2005,06,21,02,01,16.70
2005,06,21,02,02,16.70
2005,06,21,02,03,16.70
2005,06,21,02,04,16.70
2005,06,21,02,05,16.70
2005,06,21,02,06,16.70
2005,06,21,02,07,16.70
2005,06,21,02,08,16.70
2005,06,21,02,09,16.70
2005,06,21,02,10,16.70
2005,06,21,02,11,16.70
2005,06,21,02,12,16.70
2005,06,21,02,13,16.70
2005,06,21,02,14,16.70
2005,06,21,02,15,16.70
2005,06,21,02,16,16.70
2005,06,21,02,17,16.70
2005,06,21,02,18,16.70
2005,06,21,02,19,16.60
2005,06,21,02,20,16.60
2005,06,21,02,21,16.50
2005,06,21,02,22,16.40
2005,06,21,02,23,16.40
2005,06,21,02,24,16.30
2005,06,21,02,25,16.30
2005,06,21,02,26,16.30
2005,06,21,02,27,16.30
2005,06,21,02,28,16.30
2005,06,21,02,29,16.30
2005,06,21,02,30,16.30
2005,06,21,02,31,16.30
2005,06,21,02,32,16.20
2005,06,21,02,33,16.20
2005,06,21,02,34,16.10
2005,06,21,02,35,16.10
2005,06,21,02,36,16.10
2005,06,21,02,37,16.00
2005,06,21,02,38,15.90
2005,06,21,02,39,15.90
2005,06,21,02,40,15.90
2005,06,21,02,41,15.90
2005,06,21,02,42,15.90
2005,06,21,02,43,15.90
2005,06,21,02,44,16.00
2005,06,21,02,45,16.10
2005,06,21,02,46,16.10
2005,06,21,02,47,16.10
2005,06,21,02,48,16.10
2005,06,21,02,49,16.00
2005,06,21,02,50,15.90
2005,06,21,02,51,15.90
2005,06,21,02,52,15.90
2005,06,21,02,53,15.90
2005,06,21,02,54,15.80
2005,06,21,02,55,15.80
2005,06,21,02,56,15.80
2005,06,21,02,57,15.80
2005,06,21,02,58,15.90
2005,06,21,02,59,15.90
2005,06,21,03,00,16.00
2005,06,21,03,01,16.10
2005,06,21,03,02,16.10
2005,06,21,03,03,16.10
2005,06,21,03,04,16.10
2005,06,21,03,05,16.20
2005,06,21,03,06,16.20
2005,06,21,03,07,16.20
2005,06,21,03,08,16.20
2005,06,21,03,09,16.10
2005,06,21,03,10,16.10
2005,06,21,03,11,16.10
2005,06,21,03,12,16.10
2005,06,21,03,13,16.10
2005,06,21,03,14,16.10
2005,06,21,03,15,16.00
2005,06,21,03,16,15.90
2005,06,21,03,17,15.90
2005,06,21,03,18,15.90
2005,06,21,03,19,15.80
2005,06,21,03,20,15.80
2005,06,21,03,21,15.80
2005,06,21,03,22,15.80
2005,06,21,03,23,15.80
2005,06,21,03,24,15.80
2005,06,21,03,25,15.80
2005,06,21,03,26,15.80
2005,06,21,03,27,15.80
2005,06,21,03,28,15.80
2005,06,21,03,29,15.80
2005,06,21,03,30,15.80
2005,06,21,03,31,15.70
2005,06,21,03,32,15.70
2005,06,21,03,33,15.70
2005,06,21,03,34,15.70
2005,06,21,03,35,15.60
2005,06,21,03,36,15.60
2005,06,21,03,37,15.50
2005,06,21,03,38,15.50
2005,06,21,03,39,15.40
2005,06,21,03,40,15.30
2005,06,21,03,41,15.30
2005,06,21,03,42,15.30
2005,06,21,03,43,15.30
2005,06,21,03,44,15.30
2005,06,21,03,45,15.30
2005,06,21,03,46,15.30
2005,06,21,03,47,15.30
2005,06,21,03,48,15.30
2005,06,21,03,49,15.30
2005,06,21,03,50,15.30
2005,06,21,03,51,15.30
2005,06,21,03,52,15.30
2005,06,21,03,53,15.30
2005,06,21,03,54,15.30
2005,06,21,03,55,15.40
2005,06,21,03,56,15.40
2005,06,21,03,57,15.50
2005,06,21,03,58,15.50
2005,06,21,03,59,15.50
2005,06,21,04,00,15.50
2005,06,21,04,01,15.60
2005,06,21,04,02,15.60
2005,06,21,04,03,15.70
2005,06,21,04,04,15.70
2005,06,21,04,05,15.80
2005,06,21,04,06,15.80
2005,06,21,04,07,15.90
2005,06,21,04,08,15.90
2005,06,21,04,09,15.90
2005,06,21,04,10,15.90
2005,06,21,04,11,15.90
2005,06,21,04,12,15.90
2005,06,21,04,13,15.90
2005,06,21,04,14,15.80
2005,06,21,04,15,15.80
2005,06,21,04,16,15.80
2005,06,21,04,17,15.80
2005,06,21,04,18,15.70
2005,06,21,04,19,15.70
2005,06,21,04,20,15.70
2005,06,21,04,21,15.70
2005,06,21,04,22,15.70
2005,06,21,04,23,15.70
2005,06,21,04,24,15.70
2005,06,21,04,25,15.70
2005,06,21,04,26,15.70
2005,06,21,04,27,15.60
2005,06,21,04,28,15.60
2005,06,21,04,29,15.50
2005,06,21,04,30,15.50
2005,06,21,04,31,15.40
2005,06,21,04,32,15.30
2005,06,21,04,33,15.30
2005,06,21,04,34,15.30
2005,06,21,04,35,15.30
2005,06,21,04,36,15.20
2005,06,21,04,37,15.20
2005,06,21,04,38,15.20
2005,06,21,04,39,15.20
2005,06,21,04,40,15.10
2005,06,21,04,41,15.10
2005,06,21,04,42,15.00
2005,06,21,04,43,15.00
2005,06,21,04,44,15.00
2005,06,21,04,45,15.00
2005,06,21,04,46,15.00
2005,06,21,04,47,14.90
2005,06,21,04,48,14.90
2005,06,21,04,49,14.90
2005,06,21,04,50,14.80
2005,06,21,04,51,14.80
2005,06,21,04,52,14.80
2005,06,21,04,53,14.70
2005,06,21,04,54,14.70
2005,06,21,04,55,14.70
2005,06,21,04,56,14.70
2005,06,21,04,57,14.80
2005,06,21,04,58,14.90
2005,06,21,04,59,15.00
2005,06,21,05,00,15.00
2005,06,21,05,01,15.10
2005,06,21,05,02,15.20
2005,06,21,05,03,15.20
2005,06,21,05,04,15.30
2005,06,21,05,05,15.30
2005,06,21,05,06,15.40
2005,06,21,05,07,15.40
2005,06,21,05,08,15.40
2005,06,21,05,09,15.40
2005,06,21,05,10,15.40
2005,06,21,05,11,15.40
2005,06,21,05,12,15.40
2005,06,21,05,13,15.30
2005,06,21,05,14,15.20
2005,06,21,05,15,15.20
2005,06,21,05,16,15.10
2005,06,21,05,17,15.00
2005,06,21,05,18,15.00
2005,06,21,05,19,14.90
2005,06,21,05,20,14.80
2005,06,21,05,21,14.80
2005,06,21,05,22,14.80
2005,06,21,05,23,14.80
2005,06,21,05,24,14.70
2005,06,21,05,25,14.70
2005,06,21,05,26,14.70
2005,06,21,05,27,14.70
2005,06,21,05,28,14.70
2005,06,21,05,29,14.70
2005,06,21,05,30,14.70
2005,06,21,05,31,14.70
2005,06,21,05,32,14.70
2005,06,21,05,33,14.70
2005,06,21,05,34,14.70
2005,06,21,05,35,14.70
2005,06,21,05,36,14.80
2005,06,21,05,37,14.80
2005,06,21,05,38,14.80
2005,06,21,05,39,14.80
2005,06,21,05,40,14.80
2005,06,21,05,41,14.80
2005,06,21,05,42,14.80
2005,06,21,05,43,14.80
2005,06,21,05,44,14.90
2005,06,21,05,45,15.00
2005,06,21,05,46,15.00
2005,06,21,05,47,15.00
2005,06,21,05,48,15.00
2005,06,21,05,49,15.00
2005,06,21,05,50,15.00
2005,06,21,05,51,14.90
2005,06,21,05,52,14.80
2005,06,21,05,53,14.80
2005,06,21,05,54,14.80
2005,06,21,05,55,14.80
2005,06,21,05,56,14.80
2005,06,21,05,57,14.80
2005,06,21,05,58,14.70
2005,06,21,05,59,14.70
2005,06,21,06,00,14.70
2005,06,21,06,01,14.70
2005,06,21,06,02,14.70
2005,06,21,06,03,14.70
2005,06,21,06,04,14.80
2005,06,21,06,05,14.80
2005,06,21,06,06,14.80
2005,06,21,06,07,14.90
2005,06,21,06,08,14.90
2005,06,21,06,09,15.00
2005,06,21,06,10,15.00
2005,06,21,06,11,15.10
2005,06,21,06,12,15.20
2005,06,21,06,13,15.30
2005,06,21,06,14,15.30
2005,06,21,06,15,15.40
2005,06,21,06,16,15.50
2005,06,21,06,17,15.60
2005,06,21,06,18,15.70
2005,06,21,06,19,15.80
2005,06,21,06,20,15.80
2005,06,21,06,21,15.90
2005,06,21,06,22,15.90
2005,06,21,06,23,15.90
2005,06,21,06,24,15.90
2005,06,21,06,25,16.20
2005,06,21,06,26,16.20
2005,06,21,06,27,16.30
2005,06,21,06,28,16.40
2005,06,21,06,29,16.40
2005,06,21,06,30,16.40
2005,06,21,06,31,16.40
2005,06,21,06,32,16.40
2005,06,21,06,33,16.40
2005,06,21,06,34,16.40
2005,06,21,06,35,16.40
2005,06,21,06,36,16.40
2005,06,21,06,37,16.40
2005,06,21,06,38,16.40
2005,06,21,06,39,16.50
2005,06,21,06,40,16.60
2005,06,21,06,41,16.60
2005,06,21,06,42,16.70
2005,06,21,06,43,16.80
2005,06,21,06,44,16.90
2005,06,21,06,45,16.90
2005,06,21,06,46,17.00
2005,06,21,06,47,17.00
2005,06,21,06,48,17.00
2005,06,21,06,49,17.00
2005,06,21,06,50,17.00
2005,06,21,06,51,17.00
2005,06,21,06,52,17.00
2005,06,21,06,53,17.00
2005,06,21,06,54,17.10
2005,06,21,06,55,17.10
2005,06,21,06,56,17.20
2005,06,21,06,57,17.30
2005,06,21,06,58,17.30
2005,06,21,06,59,17.30
2005,06,21,07,00,17.30
2005,06,21,07,01,17.30
2005,06,21,07,02,17.30
2005,06,21,07,03,17.30
2005,06,21,07,04,17.30
2005,06,21,07,05,17.30
2005,06,21,07,06,17.40
2005,06,21,07,07,17.40
2005,06,21,07,08,17.40
2005,06,21,07,09,17.30
2005,06,21,07,10,17.40
2005,06,21,07,11,17.40
2005,06,21,07,12,17.40
2005,06,21,07,13,17.50
2005,06,21,07,14,17.60
2005,06,21,07,15,17.60
2005,06,21,07,16,17.60
2005,06,21,07,17,17.60
2005,06,21,07,18,17.80
2005,06,21,07,19,17.90
2005,06,21,07,20,17.90
2005,06,21,07,21,17.90
2005,06,21,07,22,18.00
2005,06,21,07,23,18.20
2005,06,21,07,24,18.20
2005,06,21,07,25,18.30
2005,06,21,07,26,18.40
2005,06,21,07,27,18.50
2005,06,21,07,28,18.50
2005,06,21,07,29,18.60
2005,06,21,07,30,18.70
2005,06,21,07,31,18.80
2005,06,21,07,32,18.90
2005,06,21,07,33,19.00
2005,06,21,07,34,19.10
2005,06,21,07,35,19.10
2005,06,21,07,36,19.10
2005,06,21,07,37,19.30
2005,06,21,07,38,19.50
2005,06,21,07,39,19.60
2005,06,21,07,40,19.70
2005,06,21,07,41,19.70
2005,06,21,07,42,19.70
2005,06,21,07,43,19.80
2005,06,21,07,44,19.80
2005,06,21,07,45,19.80
2005,06,21,07,46,19.80
2005,06,21,07,47,19.80
2005,06,21,07,48,19.70
2005,06,21,07,49,19.70
2005,06,21,07,50,19.70
2005,06,21,07,51,19.70
2005,06,21,07,52,19.70
2005,06,21,07,53,19.80
2005,06,21,07,54,19.80
2005,06,21,07,55,19.90
2005,06,21,07,56,19.90
2005,06,21,07,57,19.90
2005,06,21,07,58,20.00
2005,06,21,07,59,20.10
2005,06,21,08,00,20.20
2005,06,21,08,01,20.20
2005,06,21,08,02,20.30
2005,06,21,08,03,20.30
2005,06,21,08,04,20.40
2005,06,21,08,05,20.50
2005,06,21,08,06,20.50
2005,06,21,08,07,20.50
2005,06,21,08,08,20.50
2005,06,21,08,09,20.50
2005,06,21,08,10,20.50
2005,06,21,08,11,20.60
2005,06,21,08,12,20.60
2005,06,21,08,13,20.70
2005,06,21,08,14,20.70
2005,06,21,08,15,20.80
2005,06,21,08,16,20.80
2005,06,21,08,17,20.90
2005,06,21,08,18,20.90
2005,06,21,08,19,20.90
2005,06,21,08,20,20.80
2005,06,21,08,21,20.70
2005,06,21,08,22,20.40
2005,06,21,08,23,20.10
2005,06,21,08,24,19.80
2005,06,21,08,25,19.60
2005,06,21,08,26,19.40
2005,06,21,08,27,19.20
2005,06,21,08,28,19.10
2005,06,21,08,29,19.00
2005,06,21,08,30,18.90
2005,06,21,08,31,18.90
2005,06,21,08,32,18.80
2005,06,21,08,33,18.80
2005,06,21,08,34,18.70
2005,06,21,08,35,18.70
2005,06,21,08,36,18.70
2005,06,21,08,37,18.70
2005,06,21,08,38,18.70
2005,06,21,08,39,18.70
2005,06,21,08,40,18.70
2005,06,21,08,41,18.80
2005,06,21,08,42,18.80
2005,06,21,08,43,18.80
2005,06,21,08,44,18.90
2005,06,21,08,45,18.90
2005,06,21,08,46,18.90
2005,06,21,08,47,18.90
2005,06,21,08,48,19.00
2005,06,21,08,49,19.10
2005,06,21,08,50,19.10
2005,06,21,08,51,19.10
2005,06,21,08,52,19.10
2005,06,21,08,53,19.20
2005,06,21,08,54,19.30
2005,06,21,08,55,19.40
2005,06,21,08,56,19.40
2005,06,21,08,57,19.50
2005,06,21,08,58,19.60
2005,06,21,08,59,19.60
2005,06,21,09,00,19.70
2005,06,21,09,01,19.70
2005,06,21,09,02,19.80
2005,06,21,09,03,19.80
2005,06,21,09,04,19.90
2005,06,21,09,05,19.90
2005,06,21,09,06,19.90
2005,06,21,09,07,19.90
2005,06,21,09,15,20.20
2005,06,21,09,16,20.20
2005,06,21,09,17,20.20
2005,06,21,09,18,20.20
2005,06,21,09,19,20.20
2005,06,21,09,20,20.30
2005,06,21,09,21,20.30
2005,06,21,09,22,20.30
2005,06,21,09,23,20.40
2005,06,21,09,24,20.50
2005,06,21,09,25,20.50
2005,06,21,09,26,20.60
2005,06,21,09,27,20.60
2005,06,21,09,28,20.60
2005,06,21,09,29,20.60
2005,06,21,09,30,20.70
2005,06,21,09,31,20.70
2005,06,21,09,32,20.80
2005,06,21,09,33,20.80
2005,06,21,09,34,20.90
2005,06,21,09,35,20.90
2005,06,21,09,36,20.90
2005,06,21,09,37,21.00
2005,06,21,09,38,21.00
2005,06,21,09,39,21.00
2005,06,21,09,40,21.00
2005,06,21,09,41,21.10
2005,06,21,09,42,21.10
2005,06,21,09,43,21.20
2005,06,21,09,44,21.30
2005,06,21,09,45,21.30
2005,06,21,09,46,21.30
2005,06,21,09,47,21.30
2005,06,21,09,48,21.30
2005,06,21,09,49,21.40
2005,06,21,09,50,21.40
2005,06,21,09,51,21.40
2005,06,21,09,52,21.40
2005,06,21,09,53,21.30
2005,06,21,09,54,21.30
2005,06,21,09,55,21.30
2005,06,21,09,56,21.20
2005,06,21,09,57,21.10
2005,06,21,09,58,21.10
2005,06,21,09,59,21.10
2005,06,21,10,00,21.10
2005,06,21,10,01,21.10
2005,06,21,10,02,21.10
2005,06,21,10,03,21.10
2005,06,21,10,04,21.20
2005,06,21,10,05,21.20
2005,06,21,10,06,21.30
2005,06,21,10,07,21.40
2005,06,21,10,08,21.50
2005,06,21,10,09,21.60
2005,06,21,10,10,21.60
2005,06,21,10,11,21.60
2005,06,21,10,12,21.70
2005,06,21,10,13,21.70
2005,06,21,10,14,21.70
2005,06,21,10,15,22.00
2005,06,21,10,16,22.20
2005,06,21,10,17,22.30
2005,06,21,10,18,22.40
2005,06,21,10,19,22.50
2005,06,21,10,20,22.60
2005,06,21,10,21,22.60
2005,06,21,10,22,22.60
2005,06,21,10,23,22.60
2005,06,21,10,24,22.50
2005,06,21,10,25,22.50
2005,06,21,10,26,22.40
2005,06,21,10,27,22.30
2005,06,21,10,28,22.30
2005,06,21,10,29,22.40
2005,06,21,10,30,22.50
2005,06,21,10,31,22.70
2005,06,21,10,32,22.70
2005,06,21,10,33,22.60
2005,06,21,10,34,22.40
2005,06,21,10,35,22.30
2005,06,21,10,36,22.30
2005,06,21,10,37,22.20
2005,06,21,10,38,22.00
2005,06,21,10,39,22.00
2005,06,21,10,40,21.90
2005,06,21,10,41,21.80
2005,06,21,10,42,21.80
2005,06,21,10,43,21.80
2005,06,21,10,44,22.00
2005,06,21,10,45,22.10
2005,06,21,10,46,22.30
2005,06,21,10,47,22.50
2005,06,21,10,48,22.50
2005,06,21,10,49,22.50
2005,06,21,10,50,22.50
2005,06,21,10,51,22.50
2005,06,21,10,52,22.60
2005,06,21,10,53,22.50
2005,06,21,10,54,22.60
2005,06,21,10,55,22.60
2005,06,21,10,56,22.50
2005,06,21,10,57,22.40
2005,06,21,10,58,22.40
2005,06,21,10,59,22.40
2005,06,21,11,00,22.40
2005,06,21,11,01,22.50
2005,06,21,11,02,22.50
2005,06,21,11,03,22.50
2005,06,21,11,04,22.60
2005,06,21,11,05,22.70
2005,06,21,11,06,22.80
2005,06,21,11,07,22.80
2005,06,21,11,08,23.00
2005,06,21,11,09,23.10
2005,06,21,11,10,23.10
2005,06,21,11,11,23.20
2005,06,21,11,12,23.20
2005,06,21,11,13,23.30
2005,06,21,11,14,23.30
2005,06,21,11,15,23.30
2005,06,21,11,16,23.20
2005,06,21,11,17,23.10
2005,06,21,11,18,23.10
2005,06,21,11,19,22.90
2005,06,21,11,20,22.90
2005,06,21,11,21,23.00
2005,06,21,11,22,23.00
2005,06,21,11,23,22.90
2005,06,21,11,24,22.90
2005,06,21,11,25,22.90
2005,06,21,11,26,22.90
2005,06,21,11,27,22.90
2005,06,21,11,28,22.90
2005,06,21,11,29,22.90
2005,06,21,11,30,23.00
2005,06,21,11,31,23.10
2005,06,21,11,32,23.10
2005,06,21,11,33,23.00
2005,06,21,11,34,22.90
2005,06,21,11,35,23.00
2005,06,21,11,36,23.10
2005,06,21,11,37,23.20
2005,06,21,11,38,23.30
2005,06,21,11,39,23.30
2005,06,21,11,40,23.20
2005,06,21,11,41,23.20
2005,06,21,11,42,23.30
2005,06,21,11,43,23.30
2005,06,21,11,44,23.20
2005,06,21,11,45,23.10
2005,06,21,11,46,23.10
2005,06,21,11,47,23.20
2005,06,21,11,48,23.30
2005,06,21,11,49,23.30
2005,06,21,11,50,23.30
2005,06,21,11,51,23.40
2005,06,21,11,52,23.70
2005,06,21,11,53,23.70
2005,06,21,11,54,23.70
2005,06,21,11,55,23.70
2005,06,21,11,56,23.40
2005,06,21,11,57,23.10
2005,06,21,11,58,22.80
2005,06,21,11,59,22.60
2005,06,21,12,00,22.40
2005,06,21,12,01,22.40
2005,06,21,12,02,22.30
2005,06,21,12,03,22.30
2005,06,21,12,04,22.30
2005,06,21,12,05,22.20
2005,06,21,12,06,22.20
2005,06,21,12,07,22.30
2005,06,21,12,08,22.40
2005,06,21,12,09,22.50
2005,06,21,12,10,22.60
2005,06,21,12,11,22.60
2005,06,21,12,12,22.80
2005,06,21,12,13,22.90
2005,06,21,12,14,22.90
2005,06,21,12,15,22.90
2005,06,21,12,16,22.80
2005,06,21,12,17,22.70
2005,06,21,12,18,22.60
2005,06,21,12,19,22.50
2005,06,21,12,20,22.50
2005,06,21,12,21,22.40
2005,06,21,12,22,22.40
2005,06,21,12,23,22.40
2005,06,21,12,24,22.50
2005,06,21,12,25,22.50
2005,06,21,12,26,22.60
2005,06,21,12,27,22.60
2005,06,21,12,28,22.70
2005,06,21,12,29,22.70
2005,06,21,12,30,22.70
2005,06,21,12,31,22.70
2005,06,21,12,32,22.70
2005,06,21,12,33,22.80
2005,06,21,12,34,22.90
2005,06,21,12,35,23.10
2005,06,21,12,36,23.20
2005,06,21,12,37,23.30
2005,06,21,12,38,23.30
2005,06,21,12,39,23.30
2005,06,21,12,40,23.30
2005,06,21,12,41,23.30
2005,06,21,12,42,23.40
2005,06,21,12,43,23.70
2005,06,21,12,44,23.70
2005,06,21,12,45,23.70
2005,06,21,12,46,23.70
2005,06,21,12,47,23.70
2005,06,21,12,48,23.70
2005,06,21,12,49,23.70
2005,06,21,12,50,23.70
2005,06,21,12,51,23.70
2005,06,21,12,52,23.70
2005,06,21,12,53,23.70
2005,06,21,12,54,23.60
2005,06,21,12,55,23.60
2005,06,21,12,56,23.60
2005,06,21,12,57,23.60
2005,06,21,12,58,23.60
2005,06,21,12,59,23.60
2005,06,21,13,00,23.40
2005,06,21,13,01,22.80
2005,06,21,13,02,22.70
2005,06,21,13,03,22.60
2005,06,21,13,04,22.50
2005,06,21,13,05,22.30
2005,06,21,13,06,22.20
2005,06,21,13,07,22.00
2005,06,21,13,08,21.90
2005,06,21,13,09,21.80
2005,06,21,13,10,21.60
2005,06,21,13,11,21.60
2005,06,21,13,12,21.40
2005,06,21,13,13,21.40
2005,06,21,13,14,20.90
2005,06,21,13,15,20.70
2005,06,21,13,16,20.50
2005,06,21,13,17,20.30
2005,06,21,13,18,20.30
2005,06,21,13,19,20.30
2005,06,21,13,20,20.20
2005,06,21,13,21,20.30
2005,06,21,13,22,20.30
2005,06,21,13,23,20.40
2005,06,21,13,24,20.50
2005,06,21,13,25,20.60
2005,06,21,13,26,20.70
2005,06,21,13,27,20.70
2005,06,21,13,28,20.80
2005,06,21,13,29,21.00
2005,06,21,13,30,21.00
2005,06,21,13,31,21.10
2005,06,21,13,32,21.20
2005,06,21,13,33,21.20
2005,06,21,13,34,21.30
2005,06,21,13,35,21.30
2005,06,21,13,36,21.50
2005,06,21,13,37,21.60
2005,06,21,13,38,21.80
2005,06,21,13,39,22.00
2005,06,21,13,40,22.20
2005,06,21,13,41,22.30
2005,06,21,13,42,22.50
2005,06,21,13,43,22.60
2005,06,21,13,44,22.60
2005,06,21,13,45,22.70
2005,06,21,13,46,22.80
2005,06,21,13,47,22.80
2005,06,21,13,48,22.80
2005,06,21,13,49,22.70
2005,06,21,13,50,22.60
2005,06,21,13,51,22.60
2005,06,21,13,52,22.50
2005,06,21,13,53,22.50
2005,06,21,13,54,22.60
2005,06,21,13,55,22.60
2005,06,21,13,56,22.70
2005,06,21,13,57,22.70
2005,06,21,13,58,22.80
2005,06,21,13,59,22.80
2005,06,21,14,00,22.90
2005,06,21,14,01,23.10
2005,06,21,14,02,23.20
2005,06,21,14,03,23.30
2005,06,21,14,04,23.30
2005,06,21,14,05,23.30
2005,06,21,14,06,23.40
2005,06,21,14,07,23.40
2005,06,21,14,08,23.30
2005,06,21,14,09,23.30
2005,06,21,14,10,23.30
2005,06,21,14,11,23.30
2005,06,21,14,12,23.40
2005,06,21,14,13,23.50
2005,06,21,14,14,23.60
2005,06,21,14,15,23.60
2005,06,21,14,16,23.60
2005,06,21,14,17,23.60
2005,06,21,14,18,23.50
2005,06,21,14,19,23.40
2005,06,21,14,20,23.30
2005,06,21,14,21,23.30
2005,06,21,14,22,23.30
2005,06,21,14,23,23.40
2005,06,21,14,24,23.40
2005,06,21,14,25,23.40
2005,06,21,14,26,23.40
2005,06,21,14,27,23.40
2005,06,21,14,28,23.40
2005,06,21,14,29,23.40
2005,06,21,14,30,23.30
2005,06,21,14,31,23.30
2005,06,21,14,32,23.30
2005,06,21,14,33,23.40
2005,06,21,14,34,23.40
2005,06,21,14,35,23.40
2005,06,21,14,36,23.40
2005,06,21,14,37,23.40
2005,06,21,14,38,23.60
2005,06,21,14,39,23.60
2005,06,21,14,40,23.60
2005,06,21,14,41,23.70
2005,06,21,14,42,23.70
2005,06,21,14,43,23.70
2005,06,21,14,44,23.70
2005,06,21,14,45,23.70
2005,06,21,14,46,23.70
2005,06,21,14,47,23.60
2005,06,21,14,48,23.40
2005,06,21,14,49,23.40
2005,06,21,14,50,23.40
2005,06,21,14,51,23.40
2005,06,21,14,52,23.40
2005,06,21,14,53,23.40
2005,06,21,14,54,23.60
2005,06,21,14,55,23.60
2005,06,21,14,56,23.60
2005,06,21,14,57,23.70
2005,06,21,14,58,23.70
2005,06,21,14,59,23.80
2005,06,21,15,00,23.90
2005,06,21,15,01,24.00
2005,06,21,15,02,24.10
2005,06,21,15,03,24.20
2005,06,21,15,04,24.30
2005,06,21,15,05,24.30
2005,06,21,15,06,24.30
2005,06,21,15,07,24.30
2005,06,21,15,08,24.30
2005,06,21,15,09,24.30
2005,06,21,15,10,24.20
2005,06,21,15,11,24.20
2005,06,21,15,12,24.10
2005,06,21,15,13,24.10
2005,06,21,15,14,24.10
2005,06,21,15,15,24.10
2005,06,21,15,16,24.10
2005,06,21,15,17,24.10
2005,06,21,15,18,24.20
2005,06,21,15,19,24.20
2005,06,21,15,20,24.20
2005,06,21,15,21,24.10
2005,06,21,15,22,24.10
2005,06,21,15,23,24.20
2005,06,21,15,24,24.30
2005,06,21,15,25,24.30
2005,06,21,15,26,24.40
2005,06,21,15,27,24.40
2005,06,21,15,28,24.50
2005,06,21,15,29,24.50
2005,06,21,15,30,24.50
2005,06,21,15,31,24.60
2005,06,21,15,32,24.60
2005,06,21,15,33,24.60
2005,06,21,15,34,24.70
2005,06,21,15,35,24.70
2005,06,21,15,36,24.70
2005,06,21,15,37,24.80
2005,06,21,15,38,24.80
2005,06,21,15,39,24.90
2005,06,21,15,40,24.90
2005,06,21,15,41,24.90
2005,06,21,15,42,24.80
2005,06,21,15,43,24.80
2005,06,21,15,44,24.80
2005,06,21,15,45,24.80
2005,06,21,15,46,24.70
2005,06,21,15,47,24.70
2005,06,21,15,48,24.70
2005,06,21,15,49,24.70
2005,06,21,15,50,24.60
2005,06,21,15,51,24.60
2005,06,21,15,52,24.60
2005,06,21,15,53,24.60
2005,06,21,15,54,24.60
2005,06,21,15,55,24.50
2005,06,21,15,56,24.50
2005,06,21,15,57,24.50
2005,06,21,15,58,24.50
2005,06,21,15,59,24.50
2005,06,21,16,00,24.50
2005,06,21,16,01,24.50
2005,06,21,16,02,24.50
2005,06,21,16,03,24.50
2005,06,21,16,04,24.60
2005,06,21,16,05,24.60
2005,06,21,16,06,24.50
2005,06,21,16,07,24.50
2005,06,21,16,08,24.40
2005,06,21,16,09,24.30
2005,06,21,16,10,24.10
2005,06,21,16,11,24.00
2005,06,21,16,12,23.80
2005,06,21,16,13,23.70
2005,06,21,16,14,23.60
2005,06,21,16,15,23.50
2005,06,21,16,16,23.40
2005,06,21,16,17,23.30
2005,06,21,16,18,23.20
2005,06,21,16,19,23.10
2005,06,21,16,20,23.00
2005,06,21,16,21,22.90
2005,06,21,16,22,22.70
2005,06,21,16,23,22.70
2005,06,21,16,24,22.70
2005,06,21,16,25,22.70
2005,06,21,16,26,22.40
2005,06,21,16,27,22.20
2005,06,21,16,28,22.10
2005,06,21,16,29,22.10
2005,06,21,16,30,21.90
2005,06,21,16,31,21.90
2005,06,21,16,32,21.80
2005,06,21,16,33,21.80
2005,06,21,16,34,21.70
2005,06,21,16,35,21.70
2005,06,21,16,36,21.60
2005,06,21,16,37,21.50
2005,06,21,16,38,21.40
2005,06,21,16,39,21.30
2005,06,21,16,40,21.20
2005,06,21,16,41,21.00
2005,06,21,16,42,20.90
2005,06,21,16,43,20.90
2005,06,21,16,44,20.80
2005,06,21,16,45,20.60
2005,06,21,16,46,20.60
2005,06,21,16,47,20.60
2005,06,21,16,48,20.60
2005,06,21,16,49,20.60
2005,06,21,16,50,20.60
2005,06,21,16,51,20.60
2005,06,21,16,52,19.90
2005,06,21,16,53,19.80
2005,06,21,16,54,19.60
2005,06,21,16,55,19.50
2005,06,21,16,56,19.40
2005,06,21,16,57,19.20
2005,06,21,16,58,19.10
2005,06,21,16,59,18.90
2005,06,21,17,00,18.80
2005,06,21,17,01,18.70
2005,06,21,17,02,18.60
2005,06,21,17,03,18.50
2005,06,21,17,04,18.40
2005,06,21,17,05,18.30
2005,06,21,17,06,18.20
2005,06,21,17,07,18.20
2005,06,21,17,08,18.10
2005,06,21,17,09,18.00
2005,06,21,17,10,17.90
2005,06,21,17,11,17.80
2005,06,21,17,12,17.70
2005,06,21,17,13,17.70
2005,06,21,17,14,17.60
2005,06,21,17,15,17.70
2005,06,21,17,16,17.70
2005,06,21,17,17,17.70
2005,06,21,17,18,17.70
2005,06,21,17,19,17.70
2005,06,21,17,20,17.60
2005,06,21,17,21,17.50
2005,06,21,17,22,17.50
2005,06,21,17,23,17.40
2005,06,21,17,24,17.30
2005,06,21,17,25,17.30
2005,06,21,17,26,17.30